Starlink 6090

operational
NORAD ID: 56095 Int'l Des: 2023-046 Owner: SPXS Country: US Constellation: starlink
LEOCIRCULAR

About Starlink 6090

Description loading...

Live Position

Loading 3D Globe...

Upcoming Passes

Altitude History

Altitude vs Time

uPlot chart will show altitude changes over time

Two-Line Element Set

1 56095U 23046C 25304.62566786 -.00000252 00000-0 -35495-5 0 9992
2 56095 43.0034 140.5716 0001309 264.3620 95.7073 15.02534080142647
Epoch: Oct 31, 2025 • Age: 6 hours

Current Status

Altitude 571.0 km
Velocity 7.58 km/s
Sub-Earth Point -41.85°S, 37.48°E
Launch Date Mar 29, 2023
Age 2.5 years
Type internet

Technical Details

Classification Payload
Mass 305.00 kg
Dry Mass 290.00 kg
Total Mass 305.00 kg
Length 0.20 m
Diameter 2.80 m
Span 9.00 m
Shape Box + pan
Manufacturer SPXS
Bus Type Starlink
Phase Status In Orbit
Owner/State SPXS/US

Large Constellations

Loading constellations...